Back to catalog

FENGYUN 1C DEB

AliveSSO
NORAD 31727·DEBRIS·🇨🇳 China

Launched May 10, 1999 from Taiyuan Satellite Launch Center

Loading…

Next Passes (next 24 hours)

TLE

FreshSource: Space-Track

Epoch: Sep 12, 2026, 07:41 UTC

1 31727U 99025CEA 26255.32062947  .00003406  00000-0  10853-2 0  9990
2 31727  98.8767  21.5511 0030254 247.2428 142.1010 14.40221296756036

Track FENGYUN 1C DEB in real time with AllMySat

Download on the App Store